Погода в Ленинске

Россия / Волгоградская область     48°41′37″N   45°11′57″E
темп.,
°C
ветер,
м/с
пор.,
м/с
влажн.,
%
обл.,
%
осадки,
мм/ч
давл.,
гПа
погр.,
м
17 апреля, сб
сб1700:00+14з4852100 0.1 1019143
03:00+13зсз4768100 0.1 1019131
06:00+12сз3459100 0.0 101865
09:00+17зюз2245100 0.0 1018323
12:00+13з7976100 0.3 1019414
15:00+12ююз3588100 2.9 1020435
18:00+11зсз57765 1.9 1020474
21:00+9зюз22836 1.9 102011
18 апреля, вс
вс1800:00+8зюз228610 0.0 102011
03:00+8юз22855 0.0 102010
06:00+8ююз118114 0.0 102010
09:00+13ююз115880 0.0 1020475
12:00+16зсз2241100 0.0 10191731
15:00+17сз2137100 0.0 10192013
18:00+16с334520 0.0 101889
21:00+13св225025 0.0 101819
19 апреля, пн
пн1900:00+12в225388 0.0 101814
03:00+12юв1156100 0.0 101711
06:00+12св2260100 0.1 101742
09:00+12св2463100 0.1 1018196
12:00+12св3465100 0.1 1017217
15:00+13в2367100 0.2 1016374
18:00+11св3479100 0.3 1016161
21:00+11в3685100 0.4 1017245
20 апреля, вт
вт2000:00+10в3790100 0.0 1016273
03:00+11в4891100 0.0 1015259
06:00+13вюв61095100 5.5 1015391
09:00+13вюв101690100 6.6 1014661
12:00+15вюв91568100 0.1 1014908
15:00+16вюв101763100 1.4 10141154
18:00+16вюв91561100 1.0 1013567
21:00+15юв111965100 1.1 1014813
21 апреля, ср
ср2100:00+12вюв5888100 3.4 1018283
03:00+12вюв61179100 4.8 1018334
06:00+12юв91670100 0.3 1017528
09:00+11юв81386100 0.8 1020629
12:00+11ююв91078100 0.0 1021846
15:00+13юв777499 0.0 1021828
18:00+10юв6784100 0.0 1022440
21:00+9юв4791100 0.0 1023401